Regional Weather Roundup
Issued by NWS

Home | Current Version | Previous Version | Text Only | Print | Product List | Glossary Off
Versions: 1 2 3 4 5 6 7 8 9 10 11 12 13 14 15 16 17 18 19 20 21 22 23 24 25 26 27 28 29 30 31 32 33 34 35 36 37 38 39 40 41 42 43 44 45 46 47 48 49 50

000
ASUS43 KLOT 241610
RWRIL

ILLINOIS REGIONAL WEATHER ROUNDUP
NATIONAL WEATHER SERVICE CHICAGO/ROMEOVILLE IL
1100 AM CDT THU JUL 24 2014

NOTE: "FAIR" INDICATES FEW OR NO CLOUDS BELOW 12,000 FEET WITH NO
SIGNIFICANT WEATHER AND/OR OBSTRUCTIONS TO VISIBILITY.

* THESE STATIONS ARE NOT UNDER NWS QUALITY CONTROL. THEY ALSO MAY NOT
  REPORT WEATHER SUCH AS PRECIPITATION OR FOG.

ILZ001-002-007-009-015-016-024-241700-
NORTHWEST ILLINOIS

CITY           SKY/WX    TMP DP  RH WIND       PRES   REMARKS
MOLINE         SUNNY     73  52  47 E7        30.18R
STERLING*      SUNNY     73  54  49 E7        30.20R
SAVANNA*       SUNNY     75  50  42 E5        30.19R
$$

ILZ003-004-008-010-011-017-018-241700-
NORTH CENTRAL ILLINOIS

CITY           SKY/WX    TMP DP  RH WIND       PRES   REMARKS
ROCKFORD       MOSUNNY   72  49  44 NE7       30.20S
FREEPORT*      SUNNY     69  52  54 E6        30.22R
ROCHELLE*      SUNNY     71  47  43 NE8       30.19R
DE KALB*       SUNNY     69  50  51 E13       30.19S
PERU*          SUNNY     71  53  52 NE8       30.18S
$$

ILZ005-006-012>014-019>023-241700-
NORTHEAST ILLINOIS

CITY           SKY/WX    TMP DP  RH WIND       PRES   REMARKS
CHICAGO-OHARE  MOSUNNY   71  49  45 NE13      30.18R
CHICAGO-MIDWAY MOSUNNY   70  54  56 NE12      30.17R
AURORA         SUNNY     72  51  47 NE9       30.18S
LANSING*       PTSUNNY   70  52  53 NE12      30.16S
JOLIET*        SUNNY     71  51  50 NE10      30.18S
WAUKEGAN       SUNNY     66  53  63 NE8       30.18R
DUPAGE AIRPORT SUNNY     72  52  49 N8        30.17S
KANKAKEE*      PTSUNNY   72  57  60 N6        30.16S
WHEELING       SUNNY     69  53  56 VRB7      30.20R
MORRIS*        SUNNY     72  56  56 N3        30.17S
ROMEOVILLE*    PTSUNNY   70  51  50 NE8       30.17S
NORTHERLY ISL    N/A     65  58  78 N10         N/A
$$

LMZ740>746-241700-
SOUTHERN LAKE MICHIGAN

STATION/POSITION SKY/WX   TEMP    WIND        PRES    VSBY  WAVE
                          AIR SEA DIR/SP/G                  HT/PER
                          (F)     (DEG/KT/KT) (MB)    (MI)  (FT/S)
SOUTHERN BUOY              59 60  360/  8/ 10 1022.1S         1/ 3
WAUKEGAN HARBOR            62      40/  9/ 11   N/A
HARRISON CRIB              62      30/ 13/ 14   N/A
BURNHAM HARBOR             66      10/  8/ 11   N/A
CALUMET HARBOR             66     360/  7/ 13 1020.4R
MICHIGAN CITY              65     360/  8/  9   N/A
MICHIGAN CITY 6N           64 69   40/  8/ 10   N/A           3/ 2
ST. JOSEPH                 56 50  340/  8/ 10   N/A           2/ 2
$$

ILZ025>027-034>036-040-047-049-050-058-095>099-241700-
WEST-CENTRAL ILLINOIS

CITY           SKY/WX    TMP DP  RH WIND       PRES   REMARKS
QUINCY         SUNNY     74  51  44 E8        30.18R
GALESBURG*     SUNNY     76  55  48 E8        30.19R
MACOMB*        MOSUNNY   71  54  53 E8        30.21R
JACKSONVILLE*  SUNNY     73  58  57 E9        30.17F
PITTSFIELD*    SUNNY     73  57  56 N5        30.18S
$$

ILZ028>032-037-038-041>044-048-051>054-059>061-241700-
CENTRAL ILLINOIS

CITY           SKY/WX    TMP DP  RH WIND       PRES   REMARKS
PONTIAC        SUNNY     72  55  56 NE9       30.16F
DECATUR          N/A    N/A N/A N/A MISG        N/A
PEORIA         SUNNY     74  52  46 E9        30.17S
LACON*         SUNNY     71  51  48 NE8       30.17S
LINCOLN*       SUNNY     73  55  54 NE8       30.14F
SPRINGFIELD    SUNNY     73  56  54 NE9       30.16S
TAYLORVILLE    SUNNY     70  57  64 NE9G16    30.14F
$$

ILZ033-039-045-046-055>057-062-063-241700-
EAST-CENTRAL ILLINOIS

CITY           SKY/WX    TMP DP  RH WIND       PRES   REMARKS
CHAMPAIGN      SUNNY     72  59  63 N10       30.15R
DANVILLE*      PTSUNNY   69  60  73 N7        30.12R
RANTOUL*       SUNNY     73  55  53 N10       30.16R
MATTOON        MOSUNNY   71  61  70 N12       30.13S
PARIS*         MOSUNNY   70  62  74 NE5       30.14R
$$

ILZ079-100>102-241700-
SOUTHWEST ILLINOIS

CITY           SKY/WX    TMP DP  RH WIND       PRES   REMARKS
ALTON          MOSUNNY   72  63  73 NE9       30.15S
BELLEVILLE     SUNNY     74  61  63 VRB6      30.13S
CAHOKIA*       SUNNY     75  58  55 NE10      30.14S
SPARTA*        SUNNY     70  59  68 N7        30.13F
$$

ILZ064>066-069>071-074>076-080>082-084>086-088>090-092>094-241700-
SOUTH-CENTRAL ILLINOIS

CITY           SKY/WX    TMP DP  RH WIND       PRES   REMARKS
CARBONDALE     SUNNY     72  60  66 N9        30.11S
CAIRO*         SUNNY     75  62  63 N8        30.08F
EFFINGHAM*     SUNNY     72  57  59 NE5       30.13S
MARION         MOSUNNY   72  63  73 NE8       30.11S
MT. VERNON     MOSUNNY   72  61  68 NE9       30.12S
CENTRALIA*     MOSUNNY   82  61  48 N5        30.12S HX  82
SALEM*         SUNNY     74  63  69 N3        30.13S
METROPOLIS*    SUNNY     72  57  58 N5        30.08S
$$

ILZ067-068-072-073-078-083-087-091-241700-
SOUTHEAST ILLINOIS

CITY           SKY/WX    TMP DP  RH WIND       PRES   REMARKS
LAWRENCEVILLE  SUNNY     74  61  63 NE8       30.11S
FLORA*         SUNNY     72  58  62 NE9       30.12S
FAIRFIELD*     SUNNY     73  64  73 N5        30.10F
HARRISBURG*    MOSUNNY   70  64  79 N5        30.10F
ROBINSON*      SUNNY     75  62  63 NE5       30.12S
CARMI*         SUNNY     73  63  68 N5        30.09F
$$

ABBREVIATIONS USED IN REMARKS
   TC - TEMPERATURE IN CELSIUS
  WCI - WIND CHILL INDEX
   HX - HEAT INDEX
  VSB - VISIBILITY
$$




USA.gov is the U.S. government's official web portal to all federal, state and local government web resources and services.